Location: Almena City Lake
(39.8850°N, 99.6804°W)
Time: 23:35:48
(UTC+00:00)

deb Kosmos-1763 - Pass Details

Date: 18 February 2020
Orbit: 467 x 483 km, 74.0° (Epoch: 09 April)

Event Time Altitude Azimuth Distance (km) Brightness Sun altitude
Rises 01:44:48 0° 341° (NNW) 2,545 8.0 -17.5°
Reaches altitude 10° 01:46:55 10° 343° (NNW) 1,664 7.0 -17.9°
Maximum altitude 01:50:36 83° 72° (ENE) 492 3.9 -18.6°
Enters shadow 01:52:29 27° 158° (SSE) 951 5.3 -19.0°
